Lid_Strength_Index
9 9 11 10 7 7 6 5 5 5 3 4 5 3 3 1 0 -0 0 -0 -1 -0 -0 -1 -1 -1 -1 -1 -1 -1 -1 -1
10 11 8 7 6 5 5 5 5 5 5 3 2 2 1 0 0 0 0 -0 -0 -0 -1 -1 -1 -1 -1 -1 -1 -1 -1 -1
10 9 8 6 5 5 6 5 5 5 5 5 2 1 1 1 0 1 0 -0 -0 -1 -1 -1 -1 -1 -1 -1 -1 -1 -1 -1
11 10 7 6 4 5 6 5 5 6 6 5 2 2 1 0 0 0 0 -0 -0 -1 -1 -1 -1 -1 -1 -1 -1 -1 -1 -1
10 10 8 6 4 5 6 6 5 4 7 4 3 1 1 0 0 0 0 0 -0 -0 -1 -1 -0 -1 -0 -0 -1 -1 -1 -1
10 10 10 6 4 4 5 6 4 4 7 7 4 3 1 1 1 0 0 0 0 -0 -0 -1 -1 -1 -1 -1 -1 -1 -1 -1
11 10 9 6 6 4 4 5 5 5 5 4 4 3 2 1 1 1 1 0 0 0 -0 -0 -0 -1 -1 -1 -1 -1 -1 -1
7 7 7 6 5 5 6 6 5 5 4 3 3 3 3 2 2 2 1 1 0 0 0 -0 -0 -0 -1 -1 -1 -1 -1 -1
6 5 5 6 6 6 6 7 5 5 4 3 4 3 3 3 2 2 1 1 1 0 0 -0 -0 -0 -0 -0 -0 -0 -1 -1
5 5 6 6 5 6 5 5 4 4 3 3 3 2 3 3 3 2 1 1 0 0 0 0 -0 0 -0 -0 -0 -0 -0 -1
5 5 5 5 6 6 5 4 4 3 4 3 3 2 2 2 2 1 1 1 1 1 1 0 0 -0 0 0 -0 -0 -0 -1
5 6 5 6 6 6 5 4 4 4 4 4 3 3 2 2 2 1 0 1 1 1 1 0 1 -0 -0 -0 -0 -0 -0 -0
6 6 6 5 8 7 5 4 5 5 4 4 3 3 2 2 0 0 1 -2 1 1 3 0 0 0 0 -0 -0 0 -0 -0
6 6 6 6 10 6 4 5 5 5 4 4 3 3 2 1 0 -5 -0 1 -1 0 1 1 1 0 0 0 -0 0 -0 -0
8 5 6 7 8 6 4 5 5 5 4 4 3 2 2 1 -1 -2 1 1 1 0 0 1 0 0 0 0 0 0 -0 -0
8 6 6 7 8 6 5 5 5 4 4 4 3 3 2 1 1 1 1 0 0 0 0 -0 -0 0 0 1 0 0 0 0
7 6 7 7 7 6 5 5 5 4 4 4 3 2 1 1 1 1 1 0 0 0 0 0 1 1 2 2 1 1 0 0
7 6 7 7 8 6 5 5 5 4 4 4 3 3 2 1 1 1 1 0 -0 -0 0 0 1 1 1 1 1 1 0 0
9 7 6 7 9 7 6 5 4 4 4 3 3 3 2 2 2 1 1 0 -0 -1 -1 -0 0 1 1 1 1 1 1 1
8 9 11 7 12 8 7 6 5 5 4 4 3 3 2 2 2 1 0 -0 0 0 0 -0 -0 1 2 2 3 2 1 1